This demonstration page uses our WeatherBlox Daily Observations layout. Learn more.

Left ArrowRight Arrow

39.12711, -84.51439

Hourly Observations for September 18, 2018

Temp ( °F °C ) Dew Point ( °F °C ) Humidity (%) Winds ( mph kmh ) Pressure ( in mb ) Visibility ( mi km ) Precip ( " mm )
12:02 am 00:02 Clear with Mist and Fog 70 21.1 70 21.1 100 100 Calm 29.91 1013 2 3 0.00 0.00
12:12 am 00:12 Clear with Mist and Fog 69 20.6 69 20.6 100 100 Calm 29.91 1013 3 5 0.00 0.00
12:36 am 00:36 Clear with Mist and Fog 68 20 68 20 100 100 SSW 5 7 29.91 1013 2 2 0.00 0.00
12:53 am 00:53 Clear with Mist and Fog 69 20.6 69 20.6 100 100 Calm 29.93 1014 1 2 0.00 0.00
1:26 am 01:26 Clear with Fog 68 20 68 20 100 100 Calm 29.91 1013 1 1 0.00 0.00
1:35 am 01:35 Mostly Cloudy with Mist and Fog 68 20 68 20 100 100 Calm 29.91 1013 1 1 0.00 0.00
1:53 am 01:53 Mostly Cloudy with Fog 68 20 68 20 100 100 Calm 29.93 1014 1 1 0.00 0.00
2:13 am 02:13 Clear with Fog 66 18.9 66 18.9 100 100 Calm 29.91 1013 1 1 0.00 0.00
2:15 am 02:15 Mostly Cloudy with Fog 67 19.4 67 19.4 100 100 Calm 29.91 1013 1 1 0.00 0.00
2:25 am 02:25 Mostly Cloudy with Fog 67 19.4 67 19.4 100 100 Calm 29.91 1013 0 0 0.00 0.00
2:42 am 02:42 Mostly Cloudy with Mist and Fog 67 19.4 67 19.4 100 100 Calm 29.91 1013 1 1 0.00 0.00
2:49 am 02:49 Mostly Cloudy with Mist and Fog 68 20 68 20 100 100 Calm 29.91 1013 1 2 0.00 0.00
2:53 am 02:53 Mostly Cloudy with Fog 67 19.4 67 19.4 100 100 Calm 29.93 1014 1 1 0.00 0.00
3:02 am 03:02 Cloudy with Mist and Fog 67 19.4 67 19.4 100 100 Calm 29.91 1013 2 3 0.00 0.00
3:09 am 03:09 Mostly Cloudy with Mist and Fog 67 19.4 67 19.4 100 100 Calm 29.91 1013 1 1 0.00 0.00
3:27 am 03:27 Mostly Cloudy with Fog 67 19.4 67 19.4 100 100 Calm 29.91 1013 0 0 0.00 0.00
3:53 am 03:53 Mostly Cloudy with Fog 66 18.9 66 18.9 100 100 WSW 3 6 29.93 1014 0 0 0.00 0.00
4:53 am 04:53 Mostly Cloudy with Fog 66 18.9 66 18.9 100 100 Calm 29.93 1014 0 0 0.00 0.00
5:53 am 05:53 Mostly Cloudy with Fog 65 18.3 65 18.3 100 100 Calm 29.93 1014 0 0 0.00 0.00
6:53 am 06:53 Mostly Cloudy with Fog 66 18.9 66 18.9 100 100 Calm 29.95 1014 0 0 0.00 0.03
7:53 am 07:53 Mostly Cloudy with Fog 66 18.9 66 18.9 100 100 Calm 29.96 1014 5 8 0.00 0.00
8:53 am 08:53 Mostly Cloudy with Fog 67 19.4 67 19.4 100 100 Calm 29.96 1015 5 8 0.00 0.00
9:34 am 09:34 Partly Cloudy with Patchy Fog 69 20.6 69 20.6 100 100 Calm 29.94 1014 3 5 0.00 0.00
9:53 am 09:53 Mostly Cloudy with Mist and Fog 69 20.6 69 20.6 100 100 Calm 29.97 1015 6 10 0.00 0.00
10:53 am 10:53 Mostly Cloudy 77 25 74 23.3 90 90 Calm 29.97 1015 10 16 0.00 0.03
11:53 am 11:53 Partly Cloudy 82 27.8 74 23.3 77 77 Calm 29.95 1014 10 16 0.00 0.00
12:53 pm 12:53 Mostly Cloudy 83 28.3 75 23.9 77 77 VRB 3 6 29.94 1014 10 16 0.00 0.00
1:53 pm 13:53 Partly Cloudy 86 30 73 22.8 65 65 SSE 5 7 29.93 1013 10 16 0.00 0.00
2:53 pm 14:53 Partly Cloudy 85 29.4 74 23.3 70 70 Calm 29.91 1013 10 16 0.00 0.00
4:53 pm 16:53 Mostly Sunny 86 30 70 21 59 59 WNW 5 7 29.85 1011 10 16 0.00 0.00
5:53 pm 17:53 Mostly Cloudy 86 30 72 22.2 63 63 W 6 9 29.88 1012 10 16 0.00 0.00
6:53 pm 18:53 Mostly Cloudy 84 28.9 73 22.8 70 70 VRB 6 9 29.88 1012 10 16 0.00 0.00
7:53 pm 19:53 Clear 77 25 75 23.9 94 94 Calm 29.88 1012 10 16 0.00 0.00
8:53 pm 20:53 Clear 73 22.8 73 22.8 100 100 Calm 29.89 1012 9 14 0.00 0.00
9:53 pm 21:53 Clear 72 22.2 72 22.2 100 100 Calm 29.91 1013 8 13 0.00 0.00
10:53 pm 22:53 Clear 71 21.7 71 21.7 100 100 Calm 29.91 1013 7 11 0.00 0.00
11:53 pm 23:53 Clear with Mist and Fog 69 20.6 69 20.6 100 100 Calm 29.92 1013 6 10 0.00 0.00

Powered by AerisWeather